| time (UTC) | temp F | wind direction | speed MPH | gust MPH | rain 1hr in | rain 24hr in | rain mn in | humidity % | barometer mb |
| 20260503013029 | 61 | 357 | 7.0 | 10.0 | 0.00 | 0.00 | 0.00 | 35 | 1014.8 |
| 20260503011532 | 61 | 353 | 6.0 | 14.0 | 0.00 | 0.00 | 0.00 | 35 | 1014.7 |
| 20260503010035 | 62 | 356 | 12.0 | 16.0 | 0.00 | 0.00 | 0.00 | 32 | 1014.8 |
| 20260503004528 | 62 | 349 | 15.0 | 20.0 | 0.00 | 0.00 | 0.00 | 32 | 1014.8 |
| 20260503003027 | 63 | 350 | 15.0 | 22.0 | 0.00 | 0.00 | 0.00 | 31 | 1014.8 |
| 20260503001529 | 63 | 352 | 15.0 | 22.0 | 0.00 | 0.00 | 0.00 | 31 | 1014.9 |
| 20260503000041 | 64 | 350 | 15.0 | 25.0 | 0.00 | 0.00 | 0.00 | 31 | 1014.9 |
| 20260502234525 | 64 | 348 | 20.0 | 28.0 | 0.00 | 0.00 | 0.00 | 29 | 1014.8 |
| 20260502233024 | 65 | 339 | 21.0 | 31.0 | 0.00 | 0.00 | 0.00 | 29 | 1014.8 |
| 20260502231525 | 65 | 338 | 15.0 | 25.0 | 0.00 | 0.00 | 0.00 | 30 | 1014.8 |
| 20260502230022 | 65 | 314 | 18.0 | 23.0 | 0.00 | 0.00 | 0.00 | 30 | 1014.7 |
| 20260502224521 | 65 | 341 | 17.0 | 29.0 | 0.00 | 0.00 | 0.00 | 29 | 1014.7 |
| 20260502223027 | 66 | 360 | 18.0 | 31.0 | 0.00 | 0.00 | 0.00 | 28 | 1014.7 |
| 20260502221519 | 66 | 319 | 17.0 | 27.0 | 0.00 | 0.00 | 0.00 | 29 | 1014.7 |
| 20260502220016 | 66 | 345 | 14.0 | 28.0 | 0.00 | 0.00 | 0.00 | 29 | 1014.6 |
| 20260502214514 | 66 | 330 | 21.0 | 27.0 | 0.00 | 0.00 | 0.00 | 29 | 1014.7 |
| 20260502213013 | 65 | 346 | 14.0 | 25.0 | 0.00 | 0.00 | 0.00 | 30 | 1014.9 |
| 20260502211513 | 66 | 344 | 22.0 | 29.0 | 0.00 | 0.00 | 0.00 | 30 | 1014.8 |
| 20260502210011 | 65 | 348 | 20.0 | 27.0 | 0.00 | 0.00 | 0.00 | 32 | 1014.8 |
| 20260502204510 | 65 | 348 | 14.0 | 20.0 | 0.00 | 0.00 | 0.00 | 33 | 1015.0 |
| 20260502203008 | 65 | 299 | 15.0 | 25.0 | 0.00 | 0.00 | 0.00 | 33 | 1015.2 |
| 20260502201507 | 66 | 7 | 17.0 | 24.0 | 0.00 | 0.00 | 0.00 | 33 | 1015.2 |
| 20260502200008 | 65 | 338 | 17.0 | 27.0 | 0.00 | 0.00 | 0.00 | 35 | 1015.2 |
| 20260502194505 | 65 | 332 | 18.0 | 28.0 | 0.00 | 0.00 | 0.00 | 34 | 1015.2 |
| 20260502193005 | 65 | 5 | 15.0 | 28.0 | 0.00 | 0.00 | 0.00 | 34 | 1015.3 |
| 20260502191503 | 65 | 360 | 19.0 | 29.0 | 0.00 | 0.00 | 0.00 | 34 | 1015.3 |
| 20260502190003 | 65 | 346 | 21.0 | 30.0 | 0.00 | 0.00 | 0.00 | 34 | 1015.2 |
| 20260502184501 | 65 | 334 | 20.0 | 30.0 | 0.00 | 0.00 | 0.00 | 34 | 1015.3 |
| 20260502183101 | 65 | 339 | 22.0 | 30.0 | 0.00 | 0.00 | 0.00 | 34 | 1015.2 |
| 20260502181600 | 65 | 338 | 20.0 | 29.0 | 0.00 | 0.00 | 0.00 | 35 | 1015.4 |
| 20260502163050 | 62 | 358 | 17.0 | 25.0 | 0.00 | 0.00 | 0.00 | 38 | 1015.2 |
| 20260502161543 | 62 | 350 | 17.0 | 25.0 | 0.00 | 0.00 | 0.00 | 38 | 1015.2 |
| 20260502151555 | 58 | 318 | 9.0 | 15.0 | 0.00 | 0.00 | 0.00 | 48 | 1014.9 |
| 20260502123055 | 47 | 273 | 7.0 | 10.0 | 0.00 | 0.00 | 0.00 | 61 | 1014.3 |
| 20260502121551 | 48 | 267 | 9.0 | 12.0 | 0.00 | 0.00 | 0.00 | 59 | 1014.3 |
| 20260502114546 | 49 | 273 | 12.0 | 15.0 | 0.00 | 0.00 | 0.00 | 55 | 1014.2 |
| 20260502113050 | 50 | 268 | 13.0 | 16.0 | 0.00 | 0.00 | 0.00 | 53 | 1014.1 |
| 20260502111547 | 50 | 260 | 14.0 | 19.0 | 0.00 | 0.00 | 0.00 | 52 | 1013.7 |
| 20260502110044 | 49 | 245 | 13.0 | 16.0 | 0.00 | 0.00 | 0.00 | 53 | 1013.5 |
| 20260502104540 | 49 | 240 | 14.0 | 17.0 | 0.00 | 0.00 | 0.00 | 52 | 1013.6 |
| 20260502103038 | 50 | 230 | 14.0 | 16.0 | 0.00 | 0.00 | 0.00 | 51 | 1013.6 |
| 20260502101537 | 50 | 240 | 14.0 | 18.0 | 0.00 | 0.00 | 0.00 | 51 | 1013.7 |
| 20260502091530 | 52 | 217 | 18.0 | 22.0 | 0.00 | 0.00 | 0.00 | 45 | 1013.6 |
| 20260502071518 | 52 | 200 | 18.0 | 25.0 | 0.00 | 0.00 | 0.00 | 41 | 1014.1 |
| 20260502070035 | 53 | 204 | 18.0 | 23.0 | 0.00 | 0.00 | 0.00 | 40 | 1014.2 |
| 20260502064516 | 53 | 206 | 17.0 | 23.0 | 0.00 | 0.00 | 0.00 | 39 | 1014.3 |
| 20260502063031 | 52 | 193 | 18.0 | 23.0 | 0.00 | 0.00 | 0.00 | 39 | 1014.3 |
| 20260502061511 | 51 | 197 | 15.0 | 19.0 | 0.00 | 0.00 | 0.00 | 42 | 1014.6 |
| 20260502060008 | 51 | 197 | 15.0 | 19.0 | 0.00 | 0.00 | 0.00 | 42 | 1014.9 |
| 20260502054518 | 50 | 203 | 13.0 | 17.0 | 0.00 | 0.00 | 0.00 | 43 | 1014.9 |
| 20260502053005 | 51 | 196 | 14.0 | 19.0 | 0.00 | 0.00 | 0.00 | 42 | 1015.2 |
| 20260502051503 | 51 | 200 | 16.0 | 19.0 | 0.00 | 0.00 | 0.00 | 41 | 1015.3 |
| 20260502050002 | 52 | 197 | 14.0 | 18.0 | 0.00 | 0.00 | 0.00 | 41 | 1015.4 |
| 20260502044501 | 51 | 183 | 12.0 | 16.0 | 0.00 | 0.00 | 0.00 | 42 | 1015.5 |
| 20260502043059 | 50 | 216 | 6.0 | 11.0 | 0.00 | 0.00 | 0.00 | 42 | 1015.8 |
| 20260502041605 | 50 | 214 | 7.0 | 12.0 | 0.00 | 0.00 | 0.00 | 42 | 1016.0 |
| 20260502040057 | 51 | 193 | 11.0 | 14.0 | 0.00 | 0.00 | 0.00 | 42 | 1016.0 |
| 20260502034556 | 51 | 192 | 10.0 | 13.0 | 0.00 | 0.00 | 0.00 | 40 | 1016.2 |
| 20260502033101 | 51 | 206 | 7.0 | 10.0 | 0.00 | 0.00 | 0.00 | 40 | 1016.3 |
| 20260502031600 | 52 | 213 | 6.0 | 9.0 | 0.00 | 0.00 | 0.00 | 39 | 1016.5 |
| 20260502030056 | 52 | 217 | 6.0 | 9.0 | 0.00 | 0.00 | 0.00 | 38 | 1016.6 |
| 20260502024606 | 53 | 225 | 6.0 | 8.0 | 0.00 | 0.00 | 0.00 | 37 | 1016.6 |
| 20260502023107 | 56 | 227 | 5.0 | 8.0 | 0.00 | 0.00 | 0.00 | 34 | 1016.7 |
| 20260502021550 | 59 | 214 | 6.0 | 8.0 | 0.00 | 0.00 | 0.00 | 31 | 1016.7 |
| 20260502020053 | 61 | 202 | 6.0 | 9.0 | 0.00 | 0.00 | 0.00 | 29 | 1016.8 |
| 20260502014549 | 62 | 198 | 8.0 | 10.0 | 0.00 | 0.00 | 0.00 | 27 | 1016.8 |